Regional Weather Roundup
Issued by NWS

Home | Current Version | Previous Version | Graphics & Text | Print | Product List | Glossary On
Versions: 1 2 3 4 5 6 7 8 9 10 11 12 13 14 15 16 17 18 19 20 21 22 23 24 25 26 27 28 29 30 31 32 33 34 35 36 37 38 39 40 41 42 43 44 45 46 47 48 49 50
000
ASUS43 KFSD 231502
RWRSD

WEATHER ROUNDUP FOR SOUTH DAKOTA
NATIONAL WEATHER SERVICE SIOUX FALLS SD
1000 AM CDT THU OCT 23 2014

NOTE: "FAIR" INDICATES FEW OR NO CLOUDS BELOW 12,000 FEET WITH NO
SIGNIFICANT WEATHER AND/OR OBSTRUCTIONS TO VISIBILITY.


SDZ001>005-009-010-012>017-231600-
NORTHWEST AND NORTH CENTRAL SOUTH DAKOTA

CITY           SKY/WX    TMP DP  RH WIND       PRES   REMARKS
FAITH            N/A     49  34  56 SW5       29.95S
MOBRIDGE       SUNNY     48  42  80 S7        29.93S
$$

SDZ012>016-024>037-041>051-057-063-072>074-231600-
SOUTHWEST AND SOUTH CENTRAL SOUTH DAKOTA

CITY           SKY/WX    TMP DP  RH WIND       PRES   REMARKS
RAPID CTY ARPT MOSUNNY   46  28  49 S5        29.99R
PIERRE         SUNNY     44  37  76 SW6       29.97S
CUSTER         PTSUNNY   48  20  32 SW6       30.05R
ELLSWORTH AFB  MOSUNNY   51  27  38 W6        29.98R
PHILIP         SUNNY     43  35  73 W5        29.98S
PINE RIDGE     SUNNY     40  31  70 CALM      30.03S
SPEARFISH      FAIR      52  23  32 CALM      29.98R
WINNER         FAIR      51  42  71 SW10      30.01R
$$

SDZ004>011-016>023-039-040-231600-
NORTHEAST SOUTH DAKOTA

CITY           SKY/WX    TMP DP  RH WIND       PRES   REMARKS
ABERDEEN       SUNNY     44  39  82 S6        29.98S
WATERTOWN      MOSUNNY   44  43  96 SE6       30.01R
SISSETON         N/A     55  41  59 W12       29.95R
$$

SDZ017-020-022-023-036>040-048>070-231600-
SOUTHEAST SOUTH DAKOTA

CITY           SKY/WX    TMP DP  RH WIND       PRES   REMARKS
SIOUX FALLS    MOSUNNY   52  50  93 CALM      30.04R
HURON          MOSUNNY   44  40  85 SE5       30.00S
CHAMBERLAIN    SUNNY     47  44  90 CALM      30.00S
MITCHELL       SUNNY     48  45  89 SE5       30.03R
YANKTON        MOSUNNY   46  45  93 CALM      30.06R
$$

ABBREVIATIONS USED IN REMARKS
   TC - TEMPERATURE IN CELSIUS
  WCI - WIND CHILL INDEX
   HX - HEAT INDEX
  VSB - VISIBILITY




USA.gov is the U.S. government's official web portal to all federal, state and local government web resources and services.